Location: Beuerbach
(48.1459°N, 10.9174°E)
Time: 09:36:41
(UTC+00:00)

Cosmos 2098 Rocket - Pass Details

Date: 23 May 2024
Orbit: 360 x 1020 km, 82.9° (Epoch: 15 June)

Event Time Altitude Azimuth Distance (km) Brightness Sun altitude
Rises 02:36:06 0° 342° (NNW) 3,094 7.0 -7.6°
Reaches altitude 10° 02:38:24 10° 334° (NNW) 2,274 6.2 -7.3°
Maximum altitude 02:43:04 35° 269° (W) 1,323 4.4 -6.7°
Drops below altitude 10° 02:48:27 10° 206° (SSW) 2,626 5.7 -6.1°
Enters shadow 02:50:46 - 199° (SSW) 3,456 6.3 -5.8°
